This demonstration page uses our WeatherBlox Daily Observations layout. Learn more.

Left ArrowRight Arrow

39.92423, -83.80882

Hourly Observations for August 10, 2020

Temp ( °F °C ) Dew Point ( °F °C ) Humidity (%) Winds ( mph kmh ) Pressure ( in mb ) Visibility ( mi km ) Precip ( " mm )
12:56 am 00:56 Clear 70 21.1 68 20 93 93 SSE 5 7 30.08 1019 10 16 N/A
1:56 am 01:56 Clear 71 21.7 67 19.4 87 87 S 7 11 30.07 1018 10 16 N/A
2:56 am 02:56 Clear 70 21.1 67 19.4 90 90 S 3 6 30.07 1018 10 16 N/A
3:56 am 03:56 Clear 69 20.6 68 20 96 96 N N/A 30.07 1018 10 16 N/A
4:56 am 04:56 Clear 67 19.4 67 19.4 100 100 SSW 5 7 30.06 1018 10 16 N/A
5:56 am 05:56 Clear 67 19.4 67 19.4 100 100 SW 7 11 30.05 1018 10 16 N/A
6:56 am 06:56 Sunny 66 18.9 66 18.9 100 100 SSW 3 6 30.04 1017 7 11 N/A
7:56 am 07:56 Sunny 69 20.6 69 20.6 100 100 WSW 5 7 30.06 1018 8 13 N/A
8:56 am 08:56 Sunny 74 23.3 72 22.2 94 94 N N/A 30.06 1018 10 16 N/A
9:56 am 09:56 Sunny 78 25.6 71 21.7 79 79 SW 8 13 30.06 1018 10 16 N/A
10:56 am 10:56 Sunny 79 26.1 71 21.7 77 77 SW 13 20 30.06 1018 10 16 N/A
11:44 am 11:44 Mostly Cloudy 81 27 72 22 74 74 WSW 10 17 30.03 1017 10 16 N/A
11:56 am 11:56 Mostly Cloudy 80 26.7 72 22.2 76 76 SW 8 13 30.06 1018 10 16 N/A
12:21 pm 12:21 Partly Cloudy 81 27 72 22 74 74 S 8 13 30.02 1016 10 16 N/A
12:56 pm 12:56 Mostly Sunny 81 27.2 72 22.2 74 74 SSW 7 11 30.04 1017 10 16 N/A
1:56 pm 13:56 Partly Cloudy 80 26.7 73 22.8 79 79 SSW 5 7 30.03 1017 10 16 N/A
2:56 pm 14:56 Mostly Sunny 83 28.3 74 23.3 74 74 SW 7 11 30.01 1016 10 16 N/A
3:56 pm 15:56 Sunny 84 28.9 73 22.8 70 70 SSE 8 13 29.98 1015 10 16 N/A
4:56 pm 16:56 Cloudy 84 28.9 73 22.8 70 70 SSE 9 15 29.94 1014 10 16 N/A
5:56 pm 17:56 Sunny 83 28.3 72 22.2 70 70 VRB 5 7 29.93 1014 10 16 N/A
6:56 pm 18:56 Sunny 83 28.3 72 22.2 70 70 SSW 7 11 29.93 1014 10 16 N/A
7:56 pm 19:56 Mostly Cloudy 80 26.7 71 21.7 74 74 SSW 3 6 29.94 1014 10 16 N/A
8:56 pm 20:56 Mostly Cloudy 77 25 71 21.7 82 82 S 3 6 29.94 1014 10 16 N/A
9:56 pm 21:56 Cloudy with Light Rain 75 23.9 72 22.2 90 90 SW 7 11 29.94 1014 10 16 0.00 0.00
10:17 pm 22:17 Windy with Storms Likely 72 22 70 21 94 94 NNW 30 48 29.97 1015 10 16 0.02 0.51
10:28 pm 22:28 Cloudy with Thunderstorms 68 20 68 20 100 100 NNW 15 24 29.99 1016 4 6 0.02 0.51
10:56 pm 22:56 Cloudy with Light Rain 68 20 68 20 100 100 NNW 8 13 30.00 1016 10 16 0.02 0.51
11:31 pm 23:31 Cloudy with Nearby Thunderstorms 68 20 68 20 100 100 N N/A 29.98 1015 10 16 N/A
11:46 pm 23:46 Mostly Cloudy with Light Rain 68 20 68 20 100 100 N N/A 29.98 1015 10 16 N/A
11:56 pm 23:56 Mostly Cloudy with Light Rain 68 20 68 20 100 100 SW 5 7 30.00 1016 10 16 N/A

Powered by AerisWeather